{"data":{"norad_id":58621,"intl_designator":"2023-203D","name":"STARLINK-31134","alt_names":[],"object_type":"PAYLOAD","status":"ACTIVE","operator":null,"country":"US","launch_date":"2023-12-23","launch_site_code":"AFETR","launch_vehicle":null,"mission":null,"orbit_class":"UNKNOWN","rcs_meters":null,"size_class":null,"mass_kg":null,"dimensions":null,"purposes":["comms"],"wikipedia_slug":null,"has_3d_model":false,"image_url":null,"decayed_at":null,"tle_current":{"epoch":"2026-05-24T23:27:59.881824Z","epoch_age_seconds":70902,"freshness":"FRESH","line1":"1 58621U 23203D   26144.97777641  .00000679  00000+0  34169-4 0  9995","line2":"2 58621  43.0056 356.6889 0001482 257.1110 102.9576 15.27601591135229","mean_motion":15.27601591,"eccentricity":0.0001482,"inclination_deg":43.0056,"raan_deg":356.6889,"arg_perigee_deg":257.111,"mean_anomaly_deg":102.9576,"bstar":3.4169e-5,"rev_number":13522,"period_min":94.265416354885,"perigee_km":481.96762738158,"apogee_km":484.00126377805,"semimajor_km":6861.1214455798,"source":"CELESTRAK","updated_at":"2026-05-25T13:38:18.705364Z"}}}